Location: Elma
(49.8670°N, 95.9170°W)
Time: 15:34:52
(UTC-05:00)

ISS - Pass Details

Date: 02 April 2019
Orbit: 408 x 410 km, 51.6° (Epoch: 24 April)

Event Time Altitude Azimuth Distance (km) Brightness Sun altitude
Rises 21:40:30 0° 288° (WNW) 2,339 1.7 -16.5°
Reaches altitude 10° 21:42:37 10° 283° (WNW) 1,475 0.2 -16.8°
Maximum altitude 21:45:51 53° 206° (SSW) 507 -3.5 -17.2°
Enters shadow 21:46:27 45° 165° (SSE) 566 -3.5 -17.3°
